Sivas, Turkey

7:08 AM +03 on May 30, 2017 (GMT +0300)
Sivas

Weather History for LTAR - February, 2013

Change the Weather History Date:

Saturday, February 16, 2013

  Actual Average Record
Temperature  
Mean Temperature 33 °F -  
Max Temperature 38 °F 42 °F - ()
Min Temperature 24 °F 26 °F - ()
Degree Days  
Heating Degree Days 32    
Moisture  
Dew Point 29 °F    
Average Humidity 95    
Maximum Humidity 100    
Minimum Humidity 64    
Precipitation  
Precipitation 0.01 in 0.05 in - ()
Sea Level Pressure  
Sea Level Pressure 29.87 in    
Wind  
Wind Speed 5 mph ()    
Max Wind Speed 18 mph    
Max Gust Speed -    
Visibility 4.6 miles    
Events Fog , Snow    
T = Trace of Precipitation, MM = Missing Value Source: Averaged Metar Reports

Daily Weather History Graph

Daily Weather History Graph

Search for Another Location

Airport or City:

Trip Planner

Search our weather history database for the weather conditions in past years. The results will help you decide how hot, cold, wet, or windy it might be!

Date:

Astronomy

Feb. 16, 2013 Rise Set
Actual Time 6:23 AM EET 5:09 PM EET
Civil Twilight 5:56 AM EET 5:37 PM EET
Nautical Twilight 5:24 AM EET 6:08 PM EET
Astronomical Twilight 4:53 AM EET 6:40 PM EET
Moon 9:24 AM EET (2/16) 11:46 PM EET (2/16)
Length of Visible Light 11h 41m
Length of Day
10h 45m
Waxing Crescent, 36% of the Moon is Illuminated
Feb 16
Waxing Crescent
Feb 17
First Quarter
Feb 25
Full
Mar 4
Last Quarter
Mar 11
New

Hourly Weather History & Observations

Time (EET) Temp. Windchill Dew Point Humidity Pressure Visibility Wind Dir Wind Speed Gust Speed Precip Events Conditions
12:50 AM 30.2 °F 25.4 °F 30.2 °F 100% 29.80 in 3.1 mi SSW 4.6 mph - N/A Snow Light Snow
1:50 AM 30.2 °F 26.7 °F 30.2 °F 100% 29.80 in 5.0 mi South 3.5 mph - N/A   Overcast
2:00 AM 32 °F - 30 °F 88%  in 9 mi Calm Calm - -   Partly Cloudy
2:50 AM 28.4 °F 23.3 °F 28.4 °F 100% 29.80 in 1.2 mi South 4.6 mph - N/A   Mostly Cloudy
3:50 AM 28.4 °F - 28.4 °F 100% 29.80 in 0.6 mi Calm Calm - N/A Fog , Snow Light Snow
4:50 AM 30.2 °F 24.3 °F 30.2 °F 100% 29.80 in 0.6 mi South 5.8 mph - N/A Snow Light Snow
5:50 AM 30.2 °F 20.8 °F 30.2 °F 100% 29.83 in 3.1 mi SSW 11.5 mph - N/A Snow Light Snow
6:50 AM 30.2 °F 21.9 °F 30.2 °F 100% 29.83 in 6.2 mi SSW 9.2 mph - N/A   Overcast
7:50 AM 30.2 °F 22.6 °F 30.2 °F 100% 29.83 in 5.0 mi SW 8.1 mph - N/A Snow Light Snow
8:00 AM 33 °F - 31 °F 89%  in 9 mi Calm Calm - -   Partly Cloudy
8:50 AM 30.2 °F 20.8 °F 30.2 °F 100% 29.86 in 3.7 mi SSW 11.5 mph - N/A   Overcast
9:50 AM 32.0 °F 23.6 °F 30.2 °F 93% 29.86 in 1.2 mi WSW 10.4 mph - N/A Snow Light Snow
10:50 AM 32.0 °F 24.2 °F 30.2 °F 93% 29.86 in 3.7 mi WSW 9.2 mph - N/A Snow Light Snow
11:50 AM 30.2 °F 19.3 °F 28.4 °F 93% 29.86 in 1.4 mi WNW 15.0 mph - N/A Snow Light Snow
12:50 PM 30.2 °F 20.2 °F 30.2 °F 100% 29.86 in 6.2 mi WNW 12.7 mph - N/A   Overcast
1:50 PM 30.2 °F 19.3 °F 28.4 °F 93% 29.89 in 6.2 mi WNW 15.0 mph - N/A   Overcast
2:00 PM 37 °F - 29 °F 64%  in 6 mi NNW 4.6 mph - - Snow Light Snow
2:50 PM 30.2 °F 18.1 °F 26.6 °F 86% 29.89 in 6.2 mi WNW 18.4 mph - N/A   Overcast
3:50 PM 30.2 °F 20.8 °F 26.6 °F 86% 29.92 in 6.2 mi WNW 11.5 mph - N/A Snow Light Snow
4:50 PM 28.4 °F 19.1 °F 28.4 °F 100% 29.92 in 5.6 mi NW 10.4 mph - N/A   Overcast
5:50 PM 28.4 °F 23.3 °F 28.4 °F 100% 29.92 in 6.2 mi NNW 4.6 mph - N/A Snow Light Snow
6:50 PM 28.4 °F - 28.4 °F 100% 29.95 in 3.7 mi WNW 2.3 mph - N/A Snow Light Snow
7:50 PM 28.4 °F 22.2 °F 28.4 °F 100% 29.95 in 5.0 mi WNW 5.8 mph - N/A Snow Light Snow
8:00 PM 34 °F - 29 °F 75%  in 9 mi Calm Calm - -   Partly Cloudy
8:50 PM 28.4 °F 24.6 °F 28.4 °F 100% 29.95 in 3.7 mi WNW 3.5 mph - N/A Snow Light Snow
9:50 PM 28.4 °F 24.6 °F 28.4 °F 100% 29.95 in 5.6 mi WNW 3.5 mph - N/A Snow Light Snow
10:50 PM 28.4 °F - 26.6 °F 93% 29.95 in 5.6 mi Calm Calm - N/A Snow Light Snow
11:50 PM 24.8 °F - 24.8 °F 100% 29.92 in 1.2 mi Calm Calm - N/A Snow Light Snow